Temperature
23 21 21 21 21 22 23 23 23 22 19 17 17 16 16 16 15 14 14 14 14 15 15 16 16 17 17 17 16 16 16 16 16 15 15 15 15 15 15 16 16 16 17 17
21 22 23 23 22 22 22 23 23 21 19 18 17 16 16 16 15 14 13 14 14 15 15 16 16 16 16 16 16 16 16 16 15 15 15 15 15 15 16 16 17 17 17 17
23 24 24 24 24 24 24 24 24 22 19 17 17 16 16 16 15 14 14 14 14 15 15 15 15 16 16 16 16 16 16 16 16 16 16 16 16 16 16 17 17 17 17 17
23 23 24 24 24 24 23 24 24 23 20 17 18 16 16 15 15 14 14 14 14 15 15 15 15 16 16 16 16 16 16 16 16 16 16 16 16 16 16 16 17 17 17 17
22 23 23 24 25 24 24 22 21 21 19 17 17 16 16 15 15 14 14 14 14 14 15 15 15 15 16 16 16 16 16 16 16 15 15 15 15 15 15 15 16 17 17 17
22 23 23 23 24 24 23 21 20 17 17 18 17 17 17 15 15 15 14 14 14 15 15 15 15 15 15 15 15 15 15 15 15 15 15 15 15 15 14 15 15 15 15 16
21 22 23 23 23 23 21 20 19 19 17 18 17 17 16 16 16 15 15 15 15 15 15 15 15 15 15 15 15 15 15 15 14 14 14 14 14 14 14 14 14 14 14 14
21 21 22 23 23 22 21 20 19 19 18 17 17 16 16 16 15 15 15 15 15 15 15 15 15 15 14 14 14 14 14 14 14 14 14 13 13 13 13 13 13 13 13 13
21 21 22 23 22 22 22 18 18 16 17 17 16 16 16 15 14 15 15 15 15 15 15 15 15 14 14 14 14 14 14 14 13 13 13 13 13 13 13 13 13 13 13 13
21 21 21 21 21 21 20 18 16 16 17 17 17 16 15 14 14 14 14 15 15 15 15 15 14 14 13 13 13 13 13 13 13 13 13 13 13 13 13 13 12 12 12 12
20 19 20 20 19 19 19 18 15 14 15 16 17 15 14 13 13 13 14 15 15 14 14 14 14 13 13 13 13 13 13 13 13 13 13 12 12 12 12 12 12 12 12 11
18 16 18 19 19 19 18 17 16 16 16 14 14 14 13 13 13 14 14 14 14 14 13 13 13 13 12 12 12 12 12 12 12 12 12 12 12 12 12 12 12 12 11 11
18 16 17 18 18 17 17 17 14 13 13 14 14 14 13 13 13 14 14 14 14 13 13 13 12 12 11 11 11 11 11 11 11 11 11 11 11 11 11 11 11 11 11 11
17 15 16 18 18 17 17 17 16 14 13 14 14 14 13 12 11 12 14 14 13 13 12 11 11 10 10 10 9 9 9 9 9 9 9 10 10 10 11 11 11 11 11 11
16 16 17 17 17 17 17 17 16 16 16 14 14 13 13 12 11 12 13 13 12 12 11 10 10 9 9 8 7 7 7 7 7 7 7 8 8 9 9 9 10 10 11 11
14 16 17 17 17 17 16 17 16 16 15 14 13 13 12 13 13 12 12 12 11 11 10 9 9 8 7 6 6 5 5 5 5 5 5 6 6 6 7 8 8 9 10 10
14 15 15 15 17 16 16 16 16 15 14 14 12 12 11 10 10 11 12 11 11 10 9 8 7 7 6 5 5 5 4 4 4 4 5 5 5 5 5 6 6 7 8 9
15 13 12 14 16 17 15 16 16 15 13 13 12 11 11 11 12 12 12 10 9 9 8 7 7 6 5 5 4 4 4 4 4 4 4 4 4 4 4 4 5 5 6 7
14 14 13 13 16 16 16 16 15 14 12 12 12 11 12 12 10 10 11 9 9 8 7 7 6 5 5 5 4 4 4 4 4 4 4 4 4 3 3 4 4 4 5 6
13 13 13 13 16 16 16 16 16 14 12 13 12 11 11 10 7 8 10 9 8 8 7 6 6 5 5 5 4 4 4 4 4 4 4 4 3 3 3 3 3 3 4 4
16 14 14 14 15 14 15 15 15 14 13 14 13 13 12 9 9 10 9 8 8 7 7 6 6 6 5 5 4 4 4 4 4 4 4 4 4 3 3 3 3 3 3 4
15 15 14 12 15 15 15 14 13 13 15 14 13 13 12 11 10 9 8 8 7 7 7 6 6 6 6 5 5 4 4 4 4 4 4 4 4 3 3 3 3 3 3 3
13 14 13 13 14 15 16 15 16 15 14 14 13 12 11 10 9 8 8 7 7 7 7 6 6 6 6 6 5 5 5 5 4 4 4 4 4 4 3 3 3 3 3 3
14 12 12 12 13 14 15 15 15 15 14 13 13 12 11 9 9 8 7 7 7 7 7 6 6 6 6 6 6 5 5 5 5 4 4 4 4 4 4 3 3 3 3 3
14 12 12 13 13 14 15 15 15 14 14 13 12 11 10 9 8 8 7 7 7 7 7 7 6 6 6 6 6 6 5 5 5 5 4 4 4 4 4 4 3 3 4 3
13 13 13 14 16 14 16 17 15 14 14 13 12 11 10 9 8 8 7 7 7 7 7 7 7 7 6 6 6 6 6 6 5 5 5 4 4 4 4 4 4 4 4 4
Wind_Speed
3 4 3 7 8 7 5 4 3 2 5 9 14 13 10 9 11 12 11 10 10 8 7 8 8 8 8 7 6 6 7 7 6 4 4 3 2 3 5 4 7 8 8 8
6 2 6 6 5 6 5 4 1 5 7 7 11 13 9 10 9 9 9 9 8 8 9 10 10 10 9 8 6 6 7 7 6 4 3 2 2 3 4 5 5 6 6 7
3 5 4 3 2 1 2 3 3 4 5 6 8 7 5 6 7 8 8 7 7 7 7 8 8 7 6 6 6 5 6 6 6 6 3 3 2 2 3 4 4 4 4 5
5 5 4 3 2 1 4 3 2 3 6 3 3 3 1 1 4 4 4 4 4 5 5 5 6 6 6 6 5 5 5 5 4 5 4 3 2 2 2 3 4 5 4 3
6 3 3 3 3 2 3 3 5 4 5 5 5 6 1 1 1 2 1 1 1 3 4 5 6 7 7 6 6 5 5 4 4 3 3 3 2 1 2 3 4 5 6 6
6 4 3 4 4 1 2 6 6 6 5 4 4 2 2 2 2 2 2 1 1 3 4 6 7 8 8 8 7 6 6 5 4 3 2 0 0 1 2 3 3 3 3 3
8 7 4 2 5 5 7 7 6 7 6 3 2 2 1 1 3 4 3 1 2 4 5 7 8 9 9 9 9 8 8 8 7 6 5 4 4 3 3 3 2 3 2 2
5 8 6 6 3 2 3 7 6 3 4 4 3 1 1 2 5 5 4 1 1 4 6 7 8 9 9 10 10 9 9 10 9 8 7 7 6 4 4 5 4 4 3 3
1 6 6 5 4 2 4 4 4 6 2 1 3 3 3 5 6 5 3 3 5 7 8 8 8 8 8 9 10 10 10 10 10 10 9 8 8 7 7 7 6 5 5 5
4 4 7 7 8 9 6 6 5 4 2 2 4 3 4 5 4 4 5 6 7 9 9 9 8 8 8 8 9 10 10 11 11 11 10 10 9 10 9 7 8 8 8 7
3 2 6 6 8 8 8 7 6 5 4 3 2 2 4 1 2 3 5 7 9 10 10 10 9 8 9 10 11 11 11 11 11 12 12 12 12 11 9 9 10 9 8 8
3 4 3 4 4 4 5 5 3 3 2 2 1 3 3 1 1 3 7 9 10 10 10 10 10 10 10 11 12 12 12 12 13 12 12 12 13 12 11 12 12 11 11 10
5 6 4 6 7 8 7 6 5 6 5 2 0 5 1 2 4 6 9 10 10 10 10 10 10 10 11 12 12 13 13 14 14 13 12 13 13 13 14 14 14 13 12 12
5 5 4 3 4 1 4 6 5 5 3 2 5 7 3 6 8 10 11 11 10 10 11 11 11 11 11 11 11 11 12 13 13 13 13 14 14 14 15 14 14 13 13 13
6 5 4 2 2 5 4 3 4 4 3 4 7 6 6 7 9 10 10 11 12 12 12 11 11 10 10 10 10 10 11 11 12 13 14 14 14 14 14 14 14 13 13 14
5 5 3 2 4 6 4 3 2 1 1 3 4 6 7 8 8 9 12 12 11 12 12 12 12 11 11 11 11 11 11 11 11 13 14 14 14 14 14 14 14 13 13 12
3 5 4 3 4 3 3 3 2 3 4 5 6 7 9 10 10 10 11 11 11 13 13 13 13 12 13 13 13 12 12 12 12 13 15 14 14 14 14 15 13 13 12 11
6 5 4 2 2 4 6 2 3 4 6 7 8 9 10 12 10 11 10 9 11 12 12 12 13 13 13 13 12 12 13 13 14 15 15 14 14 15 14 13 13 13 10 9
4 7 5 3 1 5 2 3 3 4 7 7 7 9 9 9 8 7 7 6 9 11 12 13 14 15 13 13 13 14 14 15 15 16 15 15 15 15 15 14 13 11 9 9
7 6 6 4 2 5 6 3 1 3 6 7 6 9 8 7 7 7 7 9 11 12 12 13 13 13 13 13 13 14 16 16 16 17 17 16 15 15 15 13 12 10 8 9
4 5 4 3 4 7 6 2 3 2 7 4 5 7 8 5 7 9 11 11 11 12 14 14 14 13 13 13 13 15 16 17 17 17 17 16 14 14 13 12 10 9 9 8
6 4 4 4 2 7 5 6 6 9 4 4 6 7 8 8 9 9 10 11 12 12 13 13 13 14 13 12 12 16 16 17 17 17 16 15 14 12 11 9 9 8 8 8
6 8 6 8 7 6 6 9 7 6 5 5 6 7 6 7 8 9 9 10 12 12 12 13 13 15 14 12 12 16 17 17 17 16 15 14 13 11 10 9 9 8 6 6
4 4 4 4 8 7 7 6 4 7 7 6 7 7 5 7 9 10 10 10 12 11 13 13 14 15 15 14 14 14 16 16 16 16 14 12 12 11 9 7 6 6 6 6
7 7 4 5 6 4 8 9 8 7 7 7 6 5 6 8 9 9 9 11 11 12 11 12 13 15 16 15 16 15 14 15 16 14 12 11 10 10 8 7 6 6 6 6
6 9 9 9 9 8 8 9 9 9 9 9 7 6 6 6 8 8 9 10 11 13 13 13 14 15 16 16 16 14 13 14 15 13 11 9 8 8 7 7 7 6 5 6
Wind_Direction
44 68 278 251 215 223 246 263 281 126 130 73 80 74 50 41 50 55 54 54 52 39 18 17 14 13 12 7 1 350 350 347 345 341 346 355 6 301 284 269 257 249 239 218
35 292 252 256 226 212 221 254 254 93 118 104 97 78 57 44 45 44 46 44 40 28 19 14 7 7 4 358 358 359 355 349 341 323 296 289 283 262 267 274 263 249 235 221
238 256 297 331 15 33 277 219 234 158 103 107 117 74 48 52 55 49 40 31 25 27 13 358 350 345 344 350 354 354 346 349 353 345 323 296 281 287 313 318 316 304 265 229
279 286 331 340 336 50 304 298 261 161 138 156 177 122 76 72 58 55 42 28 10 358 342 329 325 327 327 322 328 329 327 338 351 6 24 26 23 4 345 327 332 338 344 328
281 287 308 295 267 232 246 40 60 74 114 85 36 106 201 206 98 86 86 64 345 317 304 302 304 303 301 301 302 297 303 316 330 356 26 55 51 337 298 318 346 360 7 19
263 278 240 264 299 282 123 73 53 54 69 57 335 103 187 211 172 132 120 117 273 281 284 287 287 287 287 288 285 280 285 288 290 298 304 223 181 293 324 333 339 342 344 0
334 330 323 308 332 0 59 69 23 4 11 285 319 78 222 170 107 116 123 143 254 268 273 278 280 279 279 282 282 281 280 280 277 274 268 257 248 248 254 266 283 301 312 311
353 319 333 354 349 321 49 113 142 215 239 283 357 2 296 84 86 91 103 125 294 294 286 283 284 286 290 294 293 287 280 277 274 267 263 258 254 252 254 254 252 256 255 263
296 291 323 353 355 66 72 67 138 131 131 19 323 322 2 82 72 74 59 12 334 317 309 303 305 307 304 302 298 289 281 277 275 268 261 257 249 241 243 246 246 247 248 253
161 285 320 324 18 26 76 120 78 85 106 333 329 11 354 0 37 40 16 347 326 318 315 314 311 306 305 302 300 299 284 274 273 272 266 262 251 243 240 238 240 242 245 246
100 92 339 22 29 347 15 39 73 87 111 130 304 329 357 25 50 18 334 316 309 307 308 306 300 295 297 300 299 295 289 281 277 274 269 264 262 255 245 240 242 242 243 241
99 103 27 334 335 4 68 52 79 97 46 92 177 267 323 91 48 317 301 298 299 302 304 301 295 295 299 300 299 296 291 284 277 273 270 266 264 261 254 249 247 241 238 237
115 87 50 359 349 12 35 23 65 91 92 89 313 266 233 352 317 296 290 293 297 302 306 304 299 298 299 299 300 301 299 296 294 291 285 279 272 264 257 252 248 242 236 235
97 81 128 173 242 79 53 22 40 83 94 262 239 257 272 319 307 300 296 293 296 301 302 300 297 295 294 296 299 300 301 301 303 301 296 290 283 276 269 262 252 244 236 231
81 85 71 59 74 105 97 72 65 94 169 214 264 264 258 281 288 289 291 295 302 301 299 298 297 296 295 298 299 299 299 301 303 303 301 297 294 289 282 275 266 255 243 236
65 112 108 68 72 94 84 38 40 84 250 249 280 274 257 285 296 291 290 294 298 301 306 307 305 304 305 306 306 305 302 301 300 299 298 297 295 293 289 284 277 267 254 240
84 122 121 196 219 334 276 222 219 226 225 214 237 256 287 298 294 285 290 301 303 307 308 307 307 308 310 310 308 305 301 302 301 299 298 297 296 294 291 290 286 275 261 245
124 106 115 121 85 255 254 233 203 212 224 215 233 259 276 273 278 280 284 291 294 298 301 306 309 310 308 304 304 304 306 307 306 303 300 298 297 296 294 289 284 277 268 254
121 128 110 103 262 288 247 210 177 210 254 221 241 267 277 292 315 296 281 289 289 298 305 308 307 308 307 308 310 313 314 312 309 306 302 300 297 294 292 289 284 279 269 259
60 81 103 115 187 253 242 210 203 164 279 229 236 272 287 318 326 291 299 313 307 306 306 306 305 306 310 313 316 318 317 314 310 307 303 298 293 291 288 284 282 277 268 257
43 46 91 153 227 263 239 188 98 189 262 236 239 265 279 264 246 276 302 303 298 299 303 306 309 313 314 316 321 320 317 314 311 307 304 300 294 291 286 281 278 273 265 254
167 156 184 164 215 268 200 149 187 222 238 248 257 264 269 267 275 287 295 297 304 307 309 312 313 315 316 318 320 320 316 314 312 310 308 305 300 296 293 283 279 272 264 250
190 189 190 190 213 242 203 201 211 184 210 240 249 264 274 279 285 291 291 296 302 306 310 314 315 316 317 318 318 318 316 316 315 315 314 312 309 303 294 286 280 273 258 248
242 146 154 236 258 241 231 228 217 196 213 240 254 270 270 271 279 287 293 299 307 308 314 316 317 318 319 321 319 315 316 317 317 319 320 319 319 315 308 296 281 270 257 248
223 172 190 243 267 258 251 229 218 215 228 252 264 259 257 264 277 283 295 303 308 313 314 316 317 317 317 319 319 319 320 322 322 322 323 322 323 323 318 311 296 281 262 248
195 179 179 220 216 195 232 222 200 206 227 238 247 257 258 258 274 290 299 301 305 311 315 319 319 319 318 318 318 320 323 325 325 325 326 325 325 326 326 323 321 302 281 268
Height
1494 1500 1504 1501 1499 1498 1500 1502 1503 1501 1504 1509 1515 1519 1519 1517 1513 1510 1509 1508 1507 1507 1507 1506 1506 1505 1503 1501 1499 1497 1495 1493 1490 1487 1484 1483 1482 1482 1482 1486 1490 1493 1495 1497
1499 1501 1493 1490 1491 1495 1498 1501 1501 1504 1505 1510 1518 1521 1520 1519 1517 1515 1514 1512 1511 1511 1510 1509 1509 1507 1505 1503 1500 1498 1495 1493 1491 1489 1487 1486 1486 1486 1487 1487 1489 1491 1493 1494
1499 1495 1489 1489 1490 1492 1493 1496 1496 1501 1508 1512 1516 1525 1524 1522 1521 1520 1518 1517 1516 1515 1514 1513 1512 1510 1508 1505 1502 1499 1497 1494 1492 1490 1488 1487 1487 1486 1485 1485 1485 1487 1488 1489
1497 1491 1490 1490 1490 1489 1496 1488 1489 1493 1508 1518 1516 1533 1528 1525 1525 1523 1522 1521 1520 1519 1518 1517 1515 1513 1510 1507 1504 1501 1498 1495 1492 1489 1487 1486 1484 1483 1482 1482 1482 1482 1482 1483
1498 1491 1491 1491 1487 1486 1488 1487 1491 1496 1505 1518 1520 1529 1532 1525 1526 1526 1525 1524 1522 1521 1520 1519 1517 1514 1511 1508 1505 1502 1499 1495 1492 1489 1487 1484 1482 1481 1480 1479 1478 1477 1477 1477
1494 1489 1489 1487 1484 1483 1484 1491 1497 1505 1513 1527 1526 1526 1530 1527 1525 1525 1525 1525 1524 1523 1521 1519 1517 1514 1510 1507 1504 1500 1497 1494 1491 1488 1486 1483 1481 1478 1477 1475 1474 1473 1472 1472
1500 1492 1487 1487 1487 1487 1489 1504 1523 1525 1533 1532 1524 1527 1529 1522 1522 1524 1525 1525 1524 1523 1521 1519 1516 1512 1509 1505 1502 1498 1495 1492 1489 1486 1484 1481 1478 1476 1474 1472 1470 1468 1467 1467
1513 1511 1493 1489 1490 1493 1495 1504 1526 1533 1536 1533 1526 1529 1528 1522 1523 1524 1524 1524 1524 1522 1520 1517 1514 1510 1506 1502 1499 1495 1491 1488 1486 1483 1480 1477 1475 1472 1470 1468 1466 1465 1463 1462
1513 1511 1494 1490 1489 1490 1497 1508 1510 1525 1528 1536 1532 1528 1524 1523 1524 1525 1525 1524 1523 1520 1518 1514 1511 1507 1503 1499 1495 1491 1487 1484 1481 1478 1476 1473 1470 1468 1466 1464 1462 1461 1459 1458
1505 1511 1502 1495 1491 1493 1498 1505 1516 1526 1534 1539 1532 1531 1535 1529 1528 1526 1524 1523 1520 1518 1514 1511 1507 1504 1500 1497 1493 1488 1484 1480 1476 1473 1470 1467 1465 1463 1461 1459 1457 1456 1455 1454
1504 1514 1511 1504 1509 1511 1507 1512 1521 1531 1532 1539 1541 1542 1532 1530 1528 1526 1524 1521 1518 1515 1511 1507 1504 1501 1498 1494 1489 1484 1480 1475 1471 1467 1464 1461 1458 1456 1454 1452 1451 1450 1449 1449
1508 1517 1522 1514 1509 1507 1510 1516 1520 1529 1534 1538 1544 1545 1531 1529 1527 1525 1522 1519 1516 1512 1508 1504 1501 1498 1493 1489 1484 1479 1475 1470 1465 1461 1457 1453 1450 1448 1446 1444 1443 1443 1442 1442
1508 1519 1532 1529 1524 1517 1517 1519 1523 1530 1538 1541 1545 1541 1529 1527 1525 1522 1519 1515 1512 1508 1505 1501 1497 1493 1488 1483 1478 1473 1468 1463 1458 1454 1449 1445 1442 1439 1436 1434 1434 1433 1433 1433
1506 1522 1530 1534 1530 1523 1525 1524 1524 1530 1541 1540 1536 1532 1527 1525 1522 1518 1514 1511 1507 1504 1500 1496 1492 1487 1482 1477 1471 1466 1461 1456 1450 1445 1440 1436 1432 1429 1426 1424 1423 1423 1423 1423
1509 1524 1524 1524 1521 1521 1525 1526 1526 1528 1530 1536 1532 1528 1525 1522 1519 1514 1510 1507 1503 1499 1495 1491 1486 1480 1475 1469 1463 1458 1452 1447 1442 1436 1431 1427 1423 1419 1416 1413 1411 1411 1411 1412
1514 1523 1524 1527 1525 1525 1528 1527 1526 1527 1527 1528 1528 1527 1520 1518 1515 1511 1507 1503 1499 1495 1490 1485 1479 1474 1468 1462 1456 1450 1444 1438 1433 1427 1422 1417 1413 1409 1405 1403 1401 1400 1400 1401
1519 1524 1531 1535 1528 1529 1534 1528 1527 1527 1526 1527 1530 1525 1518 1515 1512 1508 1503 1499 1496 1491 1486 1480 1473 1467 1461 1455 1449 1442 1436 1430 1425 1419 1413 1408 1404 1399 1395 1393 1390 1389 1389 1390
1518 1527 1535 1536 1533 1537 1532 1522 1522 1524 1524 1522 1522 1519 1516 1512 1508 1504 1501 1498 1493 1487 1481 1474 1467 1461 1455 1449 1443 1436 1430 1424 1418 1412 1406 1400 1395 1391 1387 1383 1381 1380 1380 1381
1512 1521 1533 1539 1537 1533 1527 1521 1521 1524 1524 1519 1519 1516 1512 1508 1504 1500 1498 1494 1489 1483 1477 1470 1463 1456 1450 1443 1437 1430 1424 1418 1412 1405 1399 1394 1388 1383 1379 1375 1372 1371 1371 1372
1515 1519 1531 1538 1535 1537 1526 1518 1517 1521 1523 1516 1514 1512 1509 1507 1506 1498 1494 1490 1484 1478 1472 1465 1458 1451 1444 1438 1432 1425 1418 1412 1405 1399 1393 1387 1381 1376 1371 1368 1365 1363 1363 1364
1521 1527 1533 1536 1536 1529 1517 1515 1517 1526 1521 1512 1511 1509 1506 1504 1502 1496 1491 1486 1480 1473 1467 1460 1453 1446 1440 1433 1427 1420 1414 1407 1401 1394 1387 1381 1375 1370 1365 1362 1359 1357 1356 1357
1522 1528 1532 1538 1535 1529 1512 1513 1517 1514 1508 1508 1507 1505 1502 1499 1496 1492 1487 1481 1474 1468 1461 1455 1448 1441 1435 1429 1423 1416 1410 1404 1396 1389 1382 1376 1370 1365 1360 1357 1354 1353 1351 1352
1518 1518 1520 1523 1520 1509 1506 1506 1506 1506 1506 1505 1503 1501 1498 1495 1491 1487 1482 1476 1470 1463 1457 1451 1444 1437 1431 1425 1420 1413 1406 1399 1392 1385 1378 1372 1366 1361 1356 1353 1350 1348 1347 1348
1511 1511 1513 1514 1508 1504 1503 1503 1503 1503 1503 1502 1500 1497 1495 1492 1488 1483 1478 1472 1465 1459 1453 1447 1440 1434 1427 1421 1416 1410 1403 1396 1389 1382 1375 1369 1363 1358 1354 1350 1347 1345 1344 1344
1505 1508 1510 1509 1504 1502 1500 1499 1500 1500 1499 1498 1497 1494 1492 1488 1484 1480 1474 1468 1462 1456 1449 1443 1437 1430 1424 1418 1412 1406 1400 1394 1387 1380 1374 1367 1362 1357 1353 1349 1346 1344 1342 1341
1499 1501 1504 1503 1496 1496 1494 1494 1496 1496 1496 1495 1493 1491 1488 1485 1481 1476 1470 1464 1458 1452 1446 1440 1434 1428 1421 1414 1408 1403 1397 1391 1385 1378 1372 1366 1361 1356 1352 1349 1346 1343 1341 1340